Ely, MN

11:39 AM CST on January 23, 2017 (GMT -0600)
Ely Municipal

Weather History for KELO - January, 2012

Change the Weather History Date:

Sunday, January 22, 2012

  Actual Average Record
Temperature  
Mean Temperature 18 °F -  
Max Temperature 21 °F 15 °F 35 °F (2017)
Min Temperature 15 °F -1 °F -32 °F (2013)
Degree Days  
Heating Degree Days 47    
Moisture  
Dew Point 15 °F    
Average Humidity 83    
Maximum Humidity 93    
Minimum Humidity 73    
Precipitation  
Precipitation 0.00 in - - ()
Sea Level Pressure  
Sea Level Pressure 29.63 in    
Wind  
Wind Speed 7 mph (SSE)    
Max Wind Speed 10 mph    
Max Gust Speed 18 mph    
Visibility 8 miles    
Events Snow    
Averages and records for this station are not official NWS values.
T = Trace of Precipitation, MM = Missing Value Source: NWS Daily Summary

Daily Weather History Graph

Daily Weather History Graph

Search for Another Location

Airport or City:

Trip Planner

Search our weather history database for the weather conditions in past years. The results will help you decide how hot, cold, wet, or windy it might be!

Date:

Astronomy

Jan. 22, 2012 Rise Set
Actual Time 7:46 AM CST 4:51 PM CST
Civil Twilight 7:12 AM CST 5:26 PM CST
Nautical Twilight 6:34 AM CST 6:04 PM CST
Astronomical Twilight 5:57 AM CST 6:40 PM CST
Moon 7:02 AM CST (1/22) 4:35 PM CST (1/22)
Length of Visible Light 10h 14m
Length of Day
9h 05m
Waning Crescent, 0% of the Moon is Illuminated
Jan 22
Waning Crescent
Jan 23
New
Jan 30
First Quarter
Feb 7
Full
Feb 14
Last Quarter

Hourly Weather History & Observations

Time (CST) Temp. Windchill Dew Point Humidity Pressure Visibility Wind Dir Wind Speed Gust Speed Precip Events Conditions
12:12 AM 15.8 °F 4.2 °F 8.6 °F 73% 29.72 in 10.0 mi SSE 9.2 mph - N/A   Overcast
12:33 AM 17.6 °F 5.7 °F 10.4 °F 73% 29.73 in 10.0 mi South 10.4 mph 17.3 mph N/A   Overcast
12:53 AM 17.6 °F 8.2 °F 10.4 °F 73% 29.72 in 10.0 mi South 6.9 mph - N/A   Overcast
1:13 AM 17.6 °F 6.4 °F 10.4 °F 73% 29.71 in 10.0 mi SSE 9.2 mph - N/A   Overcast
1:33 AM 17.6 °F 8.2 °F 10.4 °F 73% 29.72 in 10.0 mi South 6.9 mph - N/A   Overcast
1:53 AM 17.6 °F 9.3 °F 12.2 °F 79% 29.72 in 10.0 mi SSE 5.8 mph - N/A   Overcast
2:12 AM 17.6 °F 9.3 °F 12.2 °F 79% 29.72 in 10.0 mi South 5.8 mph - N/A   Overcast
2:33 AM 17.6 °F 8.2 °F 12.2 °F 79% 29.72 in 10.0 mi SSE 6.9 mph - N/A   Overcast
2:53 AM 17.6 °F 6.4 °F 12.2 °F 79% 29.71 in 10.0 mi SSE 9.2 mph - N/A   Overcast
3:13 AM 17.6 °F 6.4 °F 14.0 °F 86% 29.71 in 10.0 mi SSE 9.2 mph - N/A   Overcast
3:33 AM 17.6 °F 7.3 °F 14.0 °F 86% 29.70 in 4.0 mi SSE 8.1 mph - N/A Snow Light Snow
3:53 AM 17.6 °F 5.7 °F 14.0 °F 86% 29.69 in 7.0 mi SSE 10.4 mph - N/A Snow Light Snow
4:12 AM 17.6 °F 7.3 °F 15.8 °F 93% 29.68 in 2.0 mi SSE 8.1 mph - N/A Snow Light Snow
4:33 AM 19.4 °F 8.6 °F 15.8 °F 86% 29.67 in 3.0 mi SSE 9.2 mph - N/A Snow Light Snow
4:53 AM 19.4 °F 7.9 °F 15.8 °F 86% 29.67 in 7.0 mi SSE 10.4 mph 16.1 mph N/A Snow Light Snow
5:12 AM 19.4 °F 9.5 °F 15.8 °F 86% 29.66 in 10.0 mi SSE 8.1 mph - N/A Snow Light Snow
5:33 AM 19.4 °F 8.6 °F 15.8 °F 86% 29.66 in 10.0 mi SSE 9.2 mph - N/A   Overcast
5:53 AM 19.4 °F 7.9 °F 15.8 °F 86% 29.66 in 10.0 mi South 10.4 mph - N/A   Overcast
6:12 AM 19.4 °F 8.6 °F 15.8 °F 86% 29.65 in 10.0 mi SSE 9.2 mph - N/A   Overcast
6:33 AM 19.4 °F 8.6 °F 15.8 °F 86% 29.64 in 10.0 mi SSE 9.2 mph - N/A   Overcast
6:53 AM 19.4 °F 7.9 °F 15.8 °F 86% 29.64 in 10.0 mi SSE 10.4 mph - N/A   Overcast
7:12 AM 19.4 °F 7.9 °F 17.6 °F 93% 29.64 in 10.0 mi South 10.4 mph 18.4 mph N/A   Overcast
7:33 AM 19.4 °F 8.6 °F 15.8 °F 86% 29.64 in 10.0 mi South 9.2 mph 16.1 mph N/A   Overcast
7:53 AM 19.4 °F 7.9 °F 15.8 °F 86% 29.63 in 10.0 mi SSE 10.4 mph - N/A   Overcast
8:12 AM 19.4 °F 7.9 °F 15.8 °F 86% 29.63 in 10.0 mi SSE 10.4 mph - N/A   Overcast
8:33 AM 19.4 °F 9.5 °F 15.8 °F 86% 29.63 in 10.0 mi SSE 8.1 mph - N/A   Overcast
8:53 AM 19.4 °F 10.4 °F 15.8 °F 86% 29.63 in 10.0 mi SSE 6.9 mph - N/A   Overcast
9:12 AM 21.2 °F 11.7 °F 15.8 °F 80% 29.63 in 10.0 mi SSE 8.1 mph - N/A   Overcast
9:33 AM 21.2 °F 11.7 °F 15.8 °F 80% 29.64 in 10.0 mi SSE 8.1 mph - N/A   Overcast
9:53 AM 21.2 °F 11.7 °F 15.8 °F 80% 29.63 in 10.0 mi SSE 8.1 mph - N/A   Overcast
10:12 AM 21.2 °F 12.6 °F 15.8 °F 80% 29.63 in 7.0 mi SSE 6.9 mph - N/A   Overcast
10:33 AM 21.2 °F 14.9 °F 15.8 °F 80% 29.63 in 7.0 mi SE 4.6 mph - N/A   Overcast
10:53 AM 21.2 °F 13.6 °F 15.8 °F 80% 29.62 in 7.0 mi SE 5.8 mph - N/A   Overcast
11:12 AM 21.2 °F 13.6 °F 15.8 °F 80% 29.62 in 10.0 mi SSE 5.8 mph - N/A   Overcast
11:33 AM 21.2 °F 14.9 °F 15.8 °F 80% 29.61 in 10.0 mi SE 4.6 mph - N/A   Overcast
11:53 AM 21.2 °F 14.9 °F 15.8 °F 80% 29.61 in 10.0 mi SSE 4.6 mph - N/A   Overcast
12:12 PM 21.2 °F 13.6 °F 15.8 °F 80% 29.60 in 10.0 mi SSE 5.8 mph - N/A   Overcast
12:32 PM 21.2 °F 14.9 °F 15.8 °F 80% 29.58 in 10.0 mi SSE 4.6 mph - N/A   Overcast
12:53 PM 21.2 °F 13.6 °F 15.8 °F 80% 29.58 in 10.0 mi SSE 5.8 mph - N/A   Overcast
1:12 PM 21.2 °F 14.9 °F 15.8 °F 80% 29.58 in 10.0 mi South 4.6 mph - N/A   Overcast
1:33 PM 21.2 °F - 15.8 °F 80% 29.57 in 10.0 mi Calm Calm - N/A Snow Light Snow
1:53 PM 21.2 °F - 15.8 °F 80% 29.56 in 5.0 mi Calm Calm - N/A Snow Light Snow
2:12 PM 21.2 °F - 15.8 °F 80% 29.56 in 7.0 mi Calm Calm - N/A   Overcast
2:33 PM 21.2 °F - 15.8 °F 80% 29.56 in 5.0 mi Calm Calm - N/A Snow Light Snow
2:53 PM 21.2 °F - 17.6 °F 86% 29.56 in 5.0 mi Calm Calm - N/A Snow Light Snow
3:12 PM 21.2 °F - 17.6 °F 86% 29.56 in 3.0 mi Calm Calm - N/A Snow Light Snow
3:33 PM 21.2 °F - 17.6 °F 86% 29.56 in 4.0 mi Calm Calm - N/A Snow Light Snow
3:53 PM 21.2 °F - 17.6 °F 86% 29.57 in 2.5 mi Calm Calm - N/A Snow Light Snow
4:12 PM 21.2 °F - 17.6 °F 86% 29.56 in 2.0 mi Calm Calm - N/A Snow Light Snow
4:33 PM 21.2 °F - 17.6 °F 86% 29.57 in 2.0 mi Calm Calm - N/A Snow Light Snow
4:52 PM 19.4 °F - 17.6 °F 93% 29.57 in 2.5 mi Calm Calm - N/A Snow Light Snow
5:13 PM 19.4 °F - 17.6 °F 93% 29.56 in 7.0 mi Calm Calm - N/A Snow Light Snow
5:33 PM 19.4 °F 14.3 °F 17.6 °F 93% 29.56 in 7.0 mi SSE 3.5 mph - N/A Snow Light Snow
5:52 PM 19.4 °F - 17.6 °F 93% 29.56 in 10.0 mi Calm Calm - N/A   Overcast
6:13 PM 21.2 °F - 17.6 °F 86% 29.57 in 10.0 mi Calm Calm - N/A   Overcast
6:33 PM 19.4 °F - 17.6 °F 93% 29.57 in 10.0 mi Calm Calm - N/A   Overcast
6:53 PM 19.4 °F - 17.6 °F 93% 29.57 in 10.0 mi Calm Calm - N/A   Overcast
7:12 PM 19.4 °F - 17.6 °F 93% 29.57 in 10.0 mi Calm Calm - N/A   Overcast
7:33 PM 19.4 °F - 17.6 °F 93% 29.57 in 7.0 mi Calm Calm - N/A Snow Light Snow
7:53 PM 19.4 °F - 17.6 °F 93% 29.57 in 10.0 mi Calm Calm - N/A   Overcast
8:12 PM 19.4 °F - 17.6 °F 93% 29.57 in 10.0 mi Calm Calm - N/A   Overcast
8:33 PM 19.4 °F - 17.6 °F 93% 29.57 in 10.0 mi Calm Calm - N/A   Overcast
8:53 PM 19.4 °F - 17.6 °F 93% 29.57 in 10.0 mi Calm Calm - N/A   Overcast
9:12 PM 19.4 °F - 17.6 °F 93% 29.57 in 10.0 mi Calm Calm - N/A   Overcast
9:33 PM 19.4 °F - 17.6 °F 93% 29.57 in 10.0 mi Calm Calm - N/A   Overcast
9:53 PM 19.4 °F - 17.6 °F 93% 29.56 in 10.0 mi Calm Calm - N/A   Overcast
10:12 PM 19.4 °F - 17.6 °F 93% 29.56 in 7.0 mi Calm Calm - N/A   Overcast
10:33 PM 19.4 °F - 17.6 °F 93% 29.56 in 10.0 mi Calm Calm - N/A   Overcast
10:53 PM 19.4 °F - 17.6 °F 93% 29.56 in 7.0 mi Calm Calm - N/A   Overcast
11:13 PM 19.4 °F - 17.6 °F 93% 29.56 in 10.0 mi Calm Calm - N/A   Overcast
11:33 PM 19.4 °F - 17.6 °F 93% 29.55 in 7.0 mi Calm Calm - N/A   Overcast
11:52 PM 19.4 °F - 17.6 °F 93% 29.54 in 7.0 mi Calm Calm - N/A   Overcast